STARLINK-11238 [DTC] (60928 NORAD) Tracking and Keplerian Element Data

This shows tracking and keplerian element data for the satellite.

Feedback or suggestion? Click here.




ElementValue
Catalog60928
NameSTARLINK-11238 [DTC]
Epoch Orbit607
Epoch Day286.91668981
Epoch Year2024
RAAN349.0696
Inclination53.1591
Eccentricity0.0001031
Argument of Perigee69.7285
Mean Anonmoly347.3142
Mean Motion15.69726753
Decay Rate-0.00037838
L11 60928U 24155E 24286.91668981 -.00037838 00000+0 -30866-3 0 9998
L22 60928 53.1591 349.0696 0001031 69.7285 347.3142 15.69726753 6078



Live tracking and technical data element details for STARLINK-11238 [DTC] (NORAD 60928). STARLINK-11238 [DTC] can be tracked NOW for your location showing map with azimuth and elevation plus other details from your city location.







IsCatalogInMostPopularTable: catalog: 60928, numindb: 9
Update: records affected: 1



GetName: 60928 STARLINK-11238 [DTC]

Hit Count: updated at: Tue, 03 Dec 2024 02:31:47 GMT